Torna al catalogo

STARLINK-5477

AttivoComunicazioniVLEO
NORAD 55659·PAYLOAD·🇺🇸 United States

Lanciato Feb 17, 2023 da Vandenberg Space Force Base

Loading…

Prossimi Passaggi (prossime 24 ore)

TLE

AggiornatoSource: CelesTrak SupGP

Epoca: Sep 14, 2026, 22:06 UTC

1 55659C 23021AH  26257.92131944  .00713160  00000+0  58346-1 0  2574
2 55659  70.0007  47.4695 0003079 273.4577 180.6258 14.98899221    19

Traccia STARLINK-5477 in tempo reale con AllMySat

Download on the App Store